Location: Santa Giusta
(39.8800°N, 8.6069°E)
Time: 16:28:56
(UTC+00:00)

IRIDIUM 106 - Pass Details

Date: 02 February 2023
Orbit: 776 x 779 km, 86.4° (Epoch: 01 April)

Event Time Altitude Azimuth Distance (km) Brightness Sun altitude
Rises 17:57:08 0° 3° (N) 3,273 7.4 -14.0°
Reaches altitude 10° 17:59:35 10° 9° (N) 2,341 6.6 -14.5°
Maximum altitude 18:04:39 48° 84° (E) 1,017 4.5 -15.4°
Drops below altitude 10° 18:09:40 10° 158° (SSE) 2,324 6.7 -16.4°
Sets 18:12:04 0° 164° (SSE) 3,247 7.5 -16.8°
